www.pogodaiklimat.ru

Погода и климат >> Архив погоды >> Южная Африка >> Плеттенберг-Бей


ПОГОДА в Плеттенберг-Бей

  • Прогноз погоды в Плеттенберг-Бей
  • Монитор погоды в Плеттенберг-Бей

АРХИВ ПОГОДЫ в Плеттенберг-Бей

Время (UTC), дата Ветер
(напр.,м/с)
 
Видим.   Явления Облачность Т
(С)
Тd
(С)
f
(%)
Тe
(С)
Тes
(С)
Комфортность P
(гПа)
Po
(гПа)
Тmin
(С)
Tmax
(С)
R
(мм)
R24
(мм)
S
(см)
00 9.06 В 5 н/о н/о +13.3 +10.5 83 +11 +11 1021.9 1005.3 +12.9 +19.5 0.2
03 9.06 СВ 4 н/о н/о +15.9 +8.2 60 +15 +15 1018.5 1002.1 +12.9 +19.5
06 9.06 С 5 н/о н/о +22.2 +4.9 32 +22 +22 комфорт 1017.1 1001.1 +12.9 0.2
09 9.06 СВ 9 н/о н/о +26.9 +1.6 19 +25 +25 комфорт 1014.2 998.5 +12.9 +26.9
12 9.06 С 3 н/о н/о +29.4 +1.3 16 +27 +27 жарко 1012.7 997.1 +12.9 +29.4
15 9.06 В 5 н/о н/о +22.3 +7.1 37 +23 +23 комфорт 1011.3 995.4 +22.3 +31.6
18 9.06 З 4 н/о н/о +21.4 +5.4 35 +22 +22 комфорт 1013.0 997.0 +19.4 +31.6
21 9.06 СЗ 5 н/о н/о +17.1 +12.0 72 +17 +17 1016.9 1000.6 +16.7 +31.6
00 10.06 З 3 н/о н/о +15.4 +12.7 84 +15 +15 1019.3 1002.8 +15.4 +31.6
03 10.06 С 2 н/о н/о +13.6 +10.7 83 +13 +13 1019.4 1002.8 +13.5 +31.6
06 10.06 З 3 н/о н/о +15.7 +8.9 64 +15 +15 1021.8 1005.3 +13.3
09 10.06 З 4 н/о н/о +17.7 +12.6 72 +18 +18 1022.9 1006.5 +13.3 +17.7
15 10.06 З 3 н/о н/о +15.3 +12.0 81 +15 +15 1023.0 1006.5 +15.3 +17.9
18 10.06 З 2 н/о н/о +14.9 +11.7 81 +15 +15 1023.9 1007.3 +14.9 +17.9
21 10.06 С 2 н/о н/о +14.7 +11.8 83 +15 +15 1023.9 1007.3 +14.6 +17.9
00 11.06 СВ 2 н/о н/о +13.1 +10.8 86 +12 +12 1022.3 1005.7 +13.1 +17.9
03 11.06 СВ 2 н/о н/о +12.2 +9.9 86 +11 +11 1021.0 1004.3 +12.2 +17.9
06 11.06 СВ 4 н/о н/о +12.0 +9.2 83 +10 +10 1019.2 1002.6 +11.5
09 11.06 В 5 н/о н/о +18.1 +10.0 59 +18 +18 1018.1 1001.8 +11.5 +18.1
12 11.06 В 4 н/о н/о +21.3 +12.8 58 +24 +24 комфорт 1012.9 996.9 +11.5 +22.0
15 11.06 СЗ 2 н/о н/о +21.8 +5.8 35 +22 +22 комфорт 1012.8 996.8 +21.8 +27.6
18 11.06 З 7 н/о н/о +16.3 +11.3 72 +15 +15 1013.3 997.0 +16.3 +27.6
21 11.06 С 2 н/о н/о +12.5 +11.0 91 +11 +11 1015.6 999.0 +12.5 +27.6
00 12.06 С 3 н/о н/о +12.9 +9.1 78 +12 +12 1016.2 999.7 +11.9 +27.6
03 12.06 З 6 н/о н/о +15.0 +9.8 71 +13 +13 1017.6 1001.2 +11.9 +27.6
06 12.06 З 5 н/о н/о +14.9 +10.9 77 +13 +13 1020.6 1004.1 +11.9
09 12.06 З 6 н/о н/о +16.8 +7.8 55 +16 +16 1022.1 1005.7 +11.9 +16.8
12 12.06 З 6 н/о н/о +15.5 +7.8 60 +14 +14 1023.7 1007.2 +11.9 +16.9
15 12.06 З 7 н/о н/о +13.4 +7.4 67 +11 +11 1027.0 1010.3 +13.4 +16.9
18 12.06 З 7 н/о н/о +12.4 +6.7 68 +10 +10 1029.3 1012.5 +11.3 +16.9
21 12.06 СЗ 3 н/о н/о +10.4 +7.4 82 +8 +8 1031.8 1014.9 +10.3 +16.9
00 13.06 С 3 н/о н/о +8.7 +6.6 87 +6 +6 1033.6 1016.5 +8.7 +16.9
03 13.06 СЗ 3 н/о н/о +9.8 +5.6 75 +8 +8 1034.2 1017.2 +8.7 +16.9
06 13.06 СЗ 4 н/о н/о +10.3 +3.8 64 +8 +8 1036.1 1019.1 +8.7
09 13.06 СЗ 2 н/о н/о +15.1 +4.2 48 +15 +15 1035.7 1019.0 +8.7 +15.4
12 13.06 ЮЗ 3 н/о н/о +14.6 +5.7 55 +14 +14 1033.5 1016.8 +8.7 +16.0 3
15 13.06 ЮВ 2 н/о н/о +12.3 +6.4 67 +12 +12 1032.2 1015.4 +12.3 +16.0
18 13.06 СВ 2 н/о н/о +9.5 +5.6 77 +8 +8 1032.9 1015.9 +9.2 +16.0 3
21 13.06 С 3 н/о н/о +9.0 +5.2 77 +7 +7 1032.5 1015.5 +9.0 +16.0
00 14.06 СВ 4 н/о н/о +8.9 +4.3 73 +6 +6 1029.8 1012.8 +8.5 +16.0 3
03 14.06 СЗ 2 н/о н/о +12.3 -3.0 34 +12 +12 1028.2 1011.4 +8.5 +16.0
06 14.06 З 3 н/о н/о +12.0 -2.1 37 +11 +11 1029.7 1012.9 +8.5
09 14.06 СЗ 3 н/о н/о +17.5 +0.7 32 +18 +18 1029.9 1013.4 +8.5 +17.7
12 14.06 З 3 н/о н/о +17.7 +2.9 37 +18 +18 1026.7 1010.3 +8.5 +18.9
15 14.06 СЗ 2 н/о н/о +13.6 +9.8 78 +13 +13 1026.5 1009.8 +13.6 +20.0
18 14.06 С 3 н/о н/о +11.4 +5.9 69 +10 +10 1027.2 1010.4 +10.8 +20.0
21 14.06 СВ 2 н/о н/о +10.7 -0.3 46 +10 +10 1025.9 1009.1 +10.4 +20.0
00 15.06 С 3 н/о н/о +10.1 +0.1 50 +9 +9 1022.9 1006.1 +9.1 +20.0
03 15.06 С 2 н/о н/о +11.9 -4.2 32 +11 +11 1021.1 1004.4 +9.1 +20.0
06 15.06 С 2 н/о н/о +11.7 -2.4 37 +12 +12 1021.0 1004.3 +9.1
09 15.06 З 3 н/о н/о +21.2 +1.1 26 +21 +21 комфорт 1020.7 1004.6 +9.1 +21.7
12 15.06 З 8 н/о н/о +16.2 +8.2 59 +15 +15 1021.1 1004.7 +9.1 +21.7
15 15.06 СЗ 4 н/о н/о +15.1 +10.3 73 +14 +14 1022.9 1006.4 +15.1 +21.7
18 15.06 СЗ 3 н/о н/о +13.8 +8.8 72 +13 +13 1024.6 1008.0 +13.8 +21.7
21 15.06 С 3 н/о н/о +12.2 +8.1 76 +11 +11 1024.6 1007.9 +11.9 +21.7

 

Местоположение метеостанции Плеттенберг-Бей (Южная Африка): широта -34.09 долгота 23.33 высота над уровнем моря 139 м.

В архиве по умолчанию представлена погода в Плеттенберг-Бей за последнюю неделю. Архивные данные за месяц целиком и за предыдущие месяцы, начиная с января 2011 года, Вы можете получить, выбрав интересующий диапазон дат из раскрывающегося списка и нажав кнопку "Ввод!".


*Определитесь, кто Вы:
робот инопланетянин человек

Внимание! Время в таблицах - всемирное. Для получения местного времени необходимо прибавить поправку, которая равна 2 ч.

Смотрите также архив погоды в соседних городах и на ближайших метеорологических станциях:

Погода в Найсне (Южная Африка) (23 км)
Погода в Парке Tsitsikamma (Южная Африка) (54 км)
Погода в Джоубертине (Южная Африка) (56 км)
Погода в Аэропорту Джордж (Южная Африка) (88 км)
Погода в Уиллоуморе (Южная Африка) (91 км)
Погода на Мысе Mossel Bay (Южная Африка) (109 км)
Погода на Мысе St. Francis (Южная Африка) (141 км)
Погода в Патенсие (Южная Африка) (142 км)
Погода в Принс Альберт (Южная Африка) (154 км)
Погода в Стилбай (Южная Африка) (180 км)

Пояснения к столбцам:

Ветер - указаны скорость ветра в м/с - средняя за 10 мин, порывы в срок и между сроками (в фигурных скобках) и направление, откуда дует ветер: С - северный, СВ - северо-восточный, В - восточный, ЮВ - юго-восточный, Ю - южный, ЮЗ - юго-западный, З - западный, СЗ - северо-западный.
Видимость - горизонтальная дальность видимости в метрах или километрах. При видимости от 1 до 10 км при отсутствии осадков обычно наблюдается дымка, при ухудшении видимости до 1 км и менее - туман. В сухую погоду видимость может ухудшаться дымом, пылью или мглою.
Явления - указаны атмосферные явления, наблюдавшиеся в срок или в последний час перед сроком; фигурными скобками обозначены явления, наблюдавшиеся между сроками (за 1-3 часа до срока); квадратными скобками обозначены град или гололедные отложения с указанием их диаметра в мм.
Облачность - указаны через наклонную черту общая и нижняя облачность в баллах и высота нижней границы облаков в метрах; квадратными скобками обозначены формы облаков: Ci - перистые, Cs - перисто-слоистые, Cc - перисто-кучевые, Ac - высококучевые, As - высокослоистые, Sc - слоисто-кучевые, Ns - слоисто-дождевые, Cu - кучевые, Cb - кучево-дождевые. Подробнее классификацию облаков см. в Атласе облаков (PDF).
T - Температура воздуха - температура, измеренная на высоте 2 м над землей.
Td - Температура точки росы - температура, при понижении до которой содержащийся в воздухе водяной пар достигнет насыщения.
f - Относительная влажность воздуха - влажноcть воздуха, измеренная на высоте 2 м над землей.
Te - Эффективная температура - температура, которую ощущает одетый по сезону человек в тени. Характеристика душности погоды. При расчете учитывается влияние влажности воздуха и скорости ветра на теплоощущения человека.
Tes - Эффективная температура на солнце - температура, которую ощущает человек, с поправкой на солнечный нагрев. Характеристика знойности погоды. Зависит от высоты солнца над горизонтом, облачности и скорости ветра. Ночью, в пасмурную погоду, а также при ветре 12 м/с и более поправка равна нулю.
P - Атмосферное давление - приведенное к уровню моря атмосферное давление.
Po - Атмосферное давление - измеренное на уровне метеостанции атмосферное давление.
Tmin - Минимальная температура - минимум температуры воздуха на высоте 2 м над землей.
Tmax - Максимальная температура - максимум температуры воздуха на высоте 2 м над землей.
R - Количество осадков - Количество выпавших осадков за период времени, мм. При наведении курсора мыши на число - период времени, за который выпало указанное количество осадков.
R24 - Количество осадков - Количество выпавших осадков за 24 часа, мм.
S - Снежный покров - Высота снежного покрова, см. При наведении курсора мыши на число - состояние снежного покрова и степень покрытия местности в баллах.